Temp
-4 -4 -4 -4 -4 -4 -4 -4 -4 -5 -5 -5 -5 -6 -6 -6 -7 -7 -7 -7 -7 -7 -6 -6 -5 -5 -6 -6 -6 -6 -7 -7 -7 -6 -6 -7 -6 -6 -6 -6 -5 -5 -4 -5 -4 -5 -5
-4 -4 -4 -4 -4 -4 -4 -4 -4 -4 -5 -5 -5 -6 -6 -6 -7 -7 -7 -7 -7 -7 -7 -7 -6 -6 -6 -6 -6 -6 -7 -7 -7 -7 -6 -7 -6 -6 -6 -5 -5 -6 -5 -6 -5 -5 -6
-4 -4 -4 -4 -4 -4 -4 -4 -4 -5 -5 -5 -5 -6 -6 -6 -7 -7 -7 -7 -7 -7 -7 -7 -7 -6 -6 -6 -6 -6 -7 -7 -7 -7 -7 -6 -6 -6 -6 -6 -6 -5 -5 -5 -6 -6 -6
-4 -4 -4 -4 -4 -4 -4 -5 -5 -5 -5 -5 -6 -6 -6 -7 -7 -8 -8 -7 -7 -7 -7 -7 -7 -7 -7 -6 -7 -7 -7 -7 -7 -7 -7 -6 -5 -5 -6 -5 -6 -5 -5 -5 -6 -6 -5
-4 -4 -4 -4 -4 -4 -5 -5 -5 -5 -5 -6 -7 -7 -7 -8 -8 -8 -8 -8 -8 -8 -8 -7 -7 -7 -7 -7 -8 -7 -7 -7 -7 -7 -7 -7 -6 -6 -5 -6 -6 -5 -5 -6 -6 -6 -5
-4 -4 -4 -5 -5 -5 -5 -5 -5 -6 -6 -7 -7 -8 -8 -9 -9 -9 -9 -8 -8 -8 -8 -8 -8 -7 -7 -7 -7 -7 -7 -7 -7 -7 -7 -7 -7 -6 -6 -6 -6 -6 -6 -5 -6 -6 -6
-4 -4 -5 -5 -4 -4 -4 -5 -6 -6 -7 -7 -8 -9 -9 -10 -10 -10 -10 -9 -9 -9 -9 -9 -8 -8 -7 -7 -8 -8 -7 -7 -7 -7 -7 -7 -7 -6 -6 -6 -6 -7 -6 -5 -5 -5 -6
-4 -4 -4 -4 -5 -4 -5 -5 -6 -7 -8 -9 -9 -10 -10 -11 -10 -11 -11 -10 -10 -10 -10 -9 -9 -9 -8 -8 -8 -8 -7 -7 -7 -7 -7 -7 -7 -7 -7 -7 -7 -8 -7 -6 -6 -5 -6
-5 -5 -4 -5 -4 -4 -5 -6 -7 -8 -9 -10 -10 -11 -11 -11 -11 -12 -11 -11 -11 -11 -11 -10 -10 -9 -9 -9 -8 -8 -9 -8 -8 -8 -7 -7 -8 -8 -8 -8 -8 -9 -8 -7 -7 -5 -6
-5 -5 -5 -5 -4 -5 -6 -7 -8 -9 -10 -11 -11 -12 -12 -12 -12 -12 -12 -12 -12 -12 -12 -12 -11 -10 -10 -10 -10 -9 -9 -9 -9 -8 -8 -8 -8 -8 -8 -8 -8 -9 -9 -9 -7 -7 -7
-5 -5 -5 -5 -5 -5 -7 -8 -9 -10 -10 -12 -12 -13 -12 -13 -13 -13 -12 -12 -12 -12 -13 -12 -11 -11 -11 -11 -11 -10 -9 -9 -9 -9 -8 -8 -8 -8 -8 -8 -8 -9 -10 -8 -9 -9 -7
-5 -5 -4 -5 -6 -7 -8 -9 -10 -10 -11 -12 -13 -13 -13 -13 -13 -13 -13 -13 -13 -13 -13 -13 -12 -12 -11 -11 -11 -11 -10 -10 -10 -10 -9 -9 -9 -8 -8 -9 -8 -10 -9 -8 -8 -9 -8
-5 -4 -5 -6 -7 -8 -9 -10 -10 -11 -12 -13 -13 -13 -13 -13 -13 -13 -13 -14 -14 -14 -14 -14 -13 -13 -13 -12 -11 -11 -11 -10 -10 -9 -9 -9 -9 -8 -9 -9 -8 -9 -10 -9 -9 -8 -8
-4 -4 -6 -7 -8 -9 -10 -10 -11 -12 -12 -13 -13 -14 -13 -13 -13 -14 -14 -14 -14 -14 -15 -15 -15 -14 -15 -14 -13 -12 -12 -11 -11 -10 -10 -10 -10 -9 -9 -9 -9 -9 -10 -8 -8 -8 -8
-5 -5 -7 -8 -9 -10 -10 -11 -12 -12 -13 -13 -13 -13 -13 -13 -14 -14 -14 -15 -15 -15 -15 -15 -15 -15 -14 -14 -14 -13 -13 -13 -13 -11 -10 -10 -10 -10 -9 -9 -9 -9 -9 -9 -10 -9 -8
-6 -7 -8 -9 -9 -10 -11 -11 -12 -13 -13 -13 -14 -13 -14 -14 -14 -15 -15 -15 -15 -15 -15 -15 -15 -16 -15 -15 -15 -14 -14 -14 -14 -12 -11 -11 -10 -11 -10 -10 -10 -9 -9 -10 -10 -9 -8
-7 -8 -9 -10 -10 -10 -11 -12 -13 -13 -14 -14 -14 -14 -14 -15 -15 -15 -16 -15 -15 -16 -15 -15 -15 -14 -15 -16 -16 -15 -15 -14 -15 -13 -12 -11 -10 -11 -11 -10 -11 -10 -10 -10 -11 -10 -9
-8 -8 -9 -9 -10 -11 -11 -12 -13 -13 -14 -14 -14 -14 -14 -14 -15 -15 -16 -16 -16 -15 -15 -15 -15 -15 -15 -15 -16 -16 -16 -15 -15 -15 -13 -12 -11 -12 -11 -11 -11 -10 -10 -10 -10 -11 -9
-8 -9 -9 -10 -10 -11 -12 -13 -13 -13 -14 -14 -14 -14 -14 -14 -15 -15 -16 -16 -16 -16 -15 -15 -15 -15 -15 -15 -15 -16 -16 -16 -15 -16 -15 -13 -13 -12 -12 -13 -12 -12 -11 -10 -11 -11 -10
-9 -9 -10 -10 -10 -11 -12 -13 -13 -14 -15 -14 -14 -14 -14 -14 -15 -16 -16 -16 -16 -16 -16 -15 -15 -16 -15 -15 -15 -15 -15 -16 -15 -16 -15 -14 -13 -12 -13 -13 -13 -12 -11 -11 -11 -11 -10
-9 -9 -10 -10 -10 -11 -13 -13 -13 -14 -14 -14 -14 -14 -14 -14 -15 -16 -16 -16 -16 -15 -16 -16 -17 -16 -16 -15 -15 -16 -16 -16 -15 -15 -15 -15 -14 -13 -14 -13 -13 -13 -11 -11 -11 -11 -10
-10 -10 -10 -10 -11 -12 -13 -13 -14 -14 -14 -14 -14 -14 -15 -14 -15 -15 -15 -15 -15 -15 -15 -16 -15 -16 -17 -17 -16 -16 -16 -16 -15 -15 -15 -15 -14 -14 -14 -14 -13 -13 -13 -11 -11 -11 -11
-10 -10 -10 -10 -11 -12 -13 -13 -13 -14 -14 -14 -14 -14 -15 -15 -15 -15 -16 -15 -15 -15 -15 -16 -16 -16 -16 -17 -16 -16 -16 -15 -15 -16 -15 -15 -15 -15 -14 -14 -13 -13 -13 -12 -12 -11 -11
-10 -10 -10 -11 -12 -13 -13 -13 -14 -15 -14 -14 -14 -14 -15 -15 -15 -15 -15 -15 -15 -15 -15 -16 -16 -15 -16 -16 -17 -16 -16 -16 -16 -15 -15 -15 -15 -15 -14 -14 -13 -13 -13 -13 -12 -11 -11
-10 -11 -11 -11 -12 -12 -12 -12 -14 -15 -15 -15 -15 -15 -15 -15 -15 -15 -15 -15 -16 -16 -16 -16 -16 -15 -16 -16 -16 -16 -17 -17 -16 -16 -15 -15 -15 -15 -15 -14 -14 -13 -13 -13 -12 -12 -11
-10 -11 -11 -12 -12 -12 -12 -12 -14 -15 -15 -15 -15 -15 -15 -15 -15 -15 -15 -16 -16 -16 -16 -16 -16 -16 -16 -16 -16 -17 -17 -17 -17 -17 -16 -15 -15 -15 -14 -14 -14 -13 -12 -12 -12 -12 -11
-11 -11 -11 -12 -12 -12 -12 -12 -14 -15 -15 -15 -15 -15 -15 -15 -15 -15 -15 -15 -16 -16 -16 -16 -16 -16 -16 -16 -16 -16 -16 -17 -17 -16 -16 -16 -15 -15 -15 -14 -14 -13 -13 -13 -12 -11 -11
-11 -12 -12 -13 -13 -13 -13 -13 -15 -15 -15 -15 -15 -15 -15 -15 -15 -15 -15 -15 -16 -16 -16 -16 -16 -16 -16 -16 -16 -16 -16 -16 -16 -16 -17 -16 -16 -16 -16 -15 -14 -15 -15 -14 -12 -12 -12
-12 -12 -12 -13 -13 -13 -14 -14 -15 -15 -15 -15 -15 -15 -15 -15 -15 -15 -15 -15 -15 -15 -16 -16 -16 -16 -16 -17 -17 -17 -16 -16 -17 -17 -16 -16 -17 -17 -16 -16 -15 -15 -15 -15 -14 -14 -12
Height
5884 5881 5877 5872 5868 5863 5858 5852 5847 5843 5840 5837 5833 5830 5828 5825 5824 5823 5824 5825 5826 5828 5830 5832 5835 5838 5841 5844 5848 5851 5855 5859 5862 5866 5869 5872 5875 5878 5880 5884 5886 5889 5888 5886 5883 5890 5893
5883 5879 5875 5871 5866 5861 5855 5850 5845 5840 5836 5832 5828 5826 5823 5822 5820 5819 5818 5818 5820 5822 5824 5827 5829 5832 5836 5840 5843 5847 5851 5856 5859 5862 5867 5869 5871 5875 5878 5881 5885 5885 5887 5886 5887 5888 5892
5882 5878 5874 5868 5863 5858 5852 5847 5842 5837 5832 5827 5823 5820 5817 5816 5814 5814 5814 5813 5814 5815 5817 5821 5824 5826 5830 5834 5838 5842 5845 5851 5855 5858 5862 5864 5866 5872 5878 5879 5884 5885 5888 5887 5887 5888 5892
5880 5875 5870 5864 5859 5854 5848 5842 5836 5831 5826 5821 5816 5812 5810 5809 5808 5807 5807 5807 5807 5809 5811 5813 5817 5821 5821 5828 5833 5836 5840 5844 5849 5854 5856 5859 5863 5869 5873 5877 5881 5885 5887 5887 5888 5891 5893
5877 5872 5866 5860 5854 5849 5842 5836 5830 5824 5819 5814 5810 5807 5804 5801 5800 5800 5801 5801 5801 5801 5804 5807 5810 5813 5816 5823 5825 5828 5834 5839 5842 5847 5850 5855 5863 5866 5871 5876 5879 5884 5886 5886 5887 5890 5893
5873 5867 5862 5856 5849 5843 5836 5829 5823 5818 5812 5807 5803 5800 5797 5796 5794 5793 5793 5793 5794 5795 5796 5799 5803 5807 5809 5815 5816 5820 5827 5832 5837 5841 5845 5851 5857 5863 5867 5874 5878 5881 5884 5884 5887 5888 5890
5869 5863 5857 5851 5844 5837 5829 5822 5815 5809 5804 5799 5797 5794 5791 5789 5787 5787 5786 5787 5789 5789 5789 5792 5795 5798 5802 5808 5814 5815 5821 5825 5831 5835 5840 5846 5853 5860 5866 5871 5872 5878 5881 5883 5884 5886 5888
5865 5859 5852 5846 5839 5830 5823 5815 5807 5800 5794 5790 5788 5786 5784 5782 5781 5781 5781 5782 5783 5783 5784 5785 5787 5790 5795 5800 5806 5809 5815 5821 5826 5832 5836 5841 5848 5857 5861 5866 5869 5873 5876 5879 5882 5884 5885
5860 5854 5847 5839 5831 5823 5814 5806 5799 5793 5788 5784 5779 5776 5775 5774 5774 5773 5774 5778 5777 5777 5778 5779 5780 5783 5789 5793 5797 5804 5808 5815 5821 5825 5830 5837 5848 5850 5856 5861 5865 5868 5872 5875 5878 5881 5881
5855 5849 5841 5832 5824 5815 5806 5798 5792 5786 5780 5775 5771 5769 5768 5769 5770 5769 5769 5771 5771 5771 5772 5774 5775 5777 5784 5787 5790 5798 5801 5807 5814 5819 5824 5833 5838 5843 5850 5854 5858 5864 5871 5870 5874 5878 5878
5850 5842 5834 5825 5815 5807 5799 5792 5786 5779 5774 5770 5767 5766 5765 5763 5765 5765 5766 5766 5766 5767 5767 5768 5768 5771 5776 5780 5785 5790 5795 5800 5807 5813 5819 5830 5832 5837 5843 5851 5853 5864 5864 5861 5866 5870 5874
5843 5835 5826 5818 5809 5801 5794 5787 5781 5774 5771 5767 5764 5761 5760 5760 5761 5761 5761 5761 5762 5763 5761 5762 5764 5766 5770 5772 5777 5782 5788 5793 5800 5806 5812 5820 5824 5831 5838 5844 5851 5857 5856 5860 5861 5867 5875
5837 5828 5819 5811 5804 5795 5789 5782 5775 5770 5765 5762 5759 5758 5757 5759 5758 5756 5755 5756 5757 5756 5756 5756 5761 5762 5765 5767 5771 5775 5781 5786 5792 5799 5805 5813 5819 5825 5833 5838 5843 5847 5848 5856 5860 5863 5873
5830 5822 5813 5806 5798 5791 5784 5777 5770 5765 5762 5759 5758 5758 5755 5754 5753 5752 5751 5751 5752 5752 5753 5754 5755 5762 5763 5765 5767 5770 5774 5781 5785 5790 5797 5806 5814 5820 5828 5834 5840 5845 5845 5850 5853 5861 5867
5825 5817 5809 5801 5794 5786 5778 5772 5767 5763 5759 5757 5755 5755 5753 5751 5751 5749 5748 5748 5749 5750 5752 5753 5753 5756 5761 5764 5766 5768 5769 5774 5777 5783 5791 5800 5808 5814 5822 5828 5833 5839 5840 5849 5851 5857 5861
5820 5812 5804 5796 5788 5781 5775 5769 5763 5759 5757 5755 5755 5753 5751 5748 5746 5746 5745 5745 5747 5748 5750 5752 5752 5754 5757 5759 5763 5765 5765 5769 5773 5777 5783 5791 5801 5807 5815 5821 5827 5832 5838 5842 5843 5848 5856
5815 5807 5801 5793 5786 5780 5774 5767 5761 5757 5755 5754 5754 5752 5750 5747 5746 5744 5743 5743 5744 5745 5747 5752 5752 5752 5754 5756 5758 5761 5763 5768 5770 5772 5777 5783 5792 5801 5808 5815 5822 5828 5831 5835 5841 5844 5851
5811 5804 5796 5788 5782 5775 5771 5765 5760 5756 5753 5753 5753 5752 5751 5748 5747 5744 5746 5745 5744 5744 5746 5747 5748 5749 5750 5752 5754 5757 5760 5764 5766 5770 5772 5776 5784 5792 5801 5807 5814 5820 5827 5831 5834 5838 5846
5806 5799 5792 5785 5779 5771 5767 5762 5758 5754 5753 5751 5752 5751 5750 5748 5747 5745 5744 5744 5744 5744 5744 5744 5744 5744 5745 5746 5749 5751 5755 5759 5763 5763 5767 5773 5778 5788 5795 5802 5806 5812 5817 5822 5829 5834 5840
5802 5795 5787 5779 5773 5767 5762 5759 5756 5753 5751 5752 5751 5749 5749 5747 5745 5743 5743 5743 5743 5743 5743 5741 5741 5740 5739 5742 5744 5746 5750 5754 5756 5760 5765 5770 5775 5785 5789 5794 5799 5806 5810 5816 5821 5826 5834
5798 5790 5783 5776 5769 5763 5759 5756 5754 5751 5751 5752 5751 5750 5748 5745 5743 5742 5742 5742 5741 5742 5741 5740 5739 5738 5738 5741 5743 5743 5744 5747 5753 5757 5762 5764 5769 5779 5785 5788 5794 5799 5805 5810 5815 5820 5826
5794 5787 5780 5772 5766 5761 5756 5753 5751 5750 5750 5752 5751 5752 5749 5747 5745 5743 5742 5741 5741 5741 5740 5738 5738 5737 5737 5738 5740 5741 5743 5745 5749 5753 5758 5759 5765 5771 5775 5784 5789 5795 5800 5805 5809 5813 5819
5789 5782 5776 5768 5763 5759 5754 5750 5750 5749 5749 5751 5751 5751 5750 5749 5747 5746 5743 5741 5740 5739 5739 5738 5737 5737 5737 5738 5738 5740 5742 5743 5746 5748 5752 5756 5759 5764 5770 5777 5781 5789 5795 5800 5804 5809 5814
5784 5778 5772 5766 5760 5756 5753 5749 5747 5747 5747 5749 5751 5752 5751 5750 5749 5748 5745 5743 5740 5739 5738 5738 5737 5736 5736 5737 5738 5739 5741 5741 5744 5746 5747 5750 5753 5757 5763 5770 5774 5778 5787 5794 5800 5805 5811
5780 5775 5769 5764 5759 5754 5749 5745 5743 5744 5746 5748 5750 5751 5751 5750 5749 5748 5746 5744 5742 5740 5738 5737 5736 5736 5736 5736 5737 5738 5739 5740 5740 5742 5745 5746 5747 5750 5756 5761 5769 5772 5779 5787 5791 5799 5803
5776 5771 5765 5760 5756 5752 5749 5745 5742 5744 5745 5747 5749 5750 5751 5751 5750 5748 5747 5744 5742 5741 5739 5737 5736 5735 5735 5735 5736 5736 5737 5738 5739 5739 5739 5742 5744 5748 5751 5755 5760 5761 5769 5779 5783 5789 5794
5772 5766 5762 5759 5756 5751 5748 5744 5742 5744 5746 5746 5747 5748 5748 5749 5749 5748 5747 5746 5743 5741 5740 5738 5737 5736 5736 5735 5734 5733 5733 5734 5735 5737 5739 5739 5739 5744 5746 5749 5754 5758 5767 5773 5776 5786 5790
5767 5762 5759 5756 5753 5748 5745 5742 5743 5745 5745 5746 5746 5746 5747 5747 5747 5746 5746 5744 5742 5740 5738 5737 5737 5736 5735 5734 5734 5733 5733 5733 5734 5735 5736 5738 5739 5738 5740 5743 5748 5755 5761 5764 5769 5773 5780
5763 5759 5755 5752 5749 5746 5744 5741 5740 5743 5745 5746 5746 5746 5746 5746 5745 5745 5744 5743 5741 5740 5738 5736 5736 5734 5733 5732 5733 5733 5733 5732 5733 5733 5734 5736 5737 5738 5740 5741 5744 5748 5754 5759 5761 5768 5774
Wind_Speed
20 25 27 31 34 37 38 39 35 27 25 22 20 20 18 19 19 19 20 22 25 28 29 28 26 25 25 26 26 28 32 29 26 25 21 18 16 17 19 16 13 9 7 2 11 7 7
21 25 28 33 36 37 38 38 39 35 29 26 23 21 19 19 20 19 20 22 23 27 29 29 29 28 27 27 28 29 32 34 31 28 24 22 21 21 21 20 16 13 9 9 10 11 8
25 26 29 35 37 39 39 40 40 38 32 27 25 22 20 21 20 21 22 21 24 26 28 29 30 30 29 30 29 31 32 37 35 32 28 29 29 25 21 20 17 16 13 14 9 13 7
25 28 32 36 39 40 41 43 43 41 33 29 26 24 23 22 22 22 23 23 22 23 28 28 30 31 34 31 30 32 33 34 40 36 34 36 34 28 25 22 21 23 13 13 11 9 9
29 31 34 38 42 42 42 45 46 42 36 29 29 27 25 22 22 22 23 22 22 23 24 28 29 31 35 32 34 36 36 36 37 41 40 39 34 32 28 24 23 20 20 16 14 10 8
30 32 36 41 42 44 46 48 48 45 35 30 28 27 25 25 23 22 23 24 23 24 25 26 30 31 35 35 39 40 39 38 38 39 44 43 38 34 32 26 23 19 23 19 15 15 11
33 36 39 42 45 48 49 52 47 40 35 32 29 28 26 24 24 24 24 23 23 22 23 25 28 34 33 33 36 40 41 40 40 40 40 42 41 37 31 27 26 19 25 27 25 20 17
37 39 41 43 47 51 53 51 45 38 33 30 27 25 25 24 24 24 24 22 21 20 20 21 26 29 32 33 34 40 42 42 41 40 39 40 40 34 33 29 27 21 24 26 29 21 19
37 38 42 45 50 54 52 47 42 36 31 27 24 24 23 22 22 22 23 19 19 19 18 20 25 27 29 33 36 39 42 42 41 40 41 39 32 35 33 31 30 26 26 29 28 28 18
37 40 45 50 54 54 51 46 39 35 29 22 22 22 21 21 21 21 20 20 18 18 17 18 22 26 27 29 30 37 42 44 45 42 42 39 36 38 38 36 35 32 26 30 30 27 30
41 46 51 55 55 53 49 42 38 33 27 22 20 19 19 18 19 18 19 19 19 18 15 21 23 25 27 29 30 34 41 42 45 45 44 38 39 38 40 38 38 29 30 34 33 30 31
45 50 54 53 50 48 44 42 36 30 26 21 18 17 14 14 15 17 19 17 16 17 20 22 24 24 28 31 32 35 38 42 43 46 47 39 42 42 39 37 37 34 37 35 31 33 22
49 52 51 49 48 43 41 37 33 28 21 17 15 13 11 13 17 16 14 12 13 18 20 23 23 24 24 31 35 36 37 40 43 46 49 43 42 43 41 41 42 43 45 36 33 31 26
52 53 51 48 43 40 37 34 29 23 18 15 14 10 12 15 13 11 8 7 11 16 18 19 21 21 21 23 28 35 36 36 42 45 48 46 44 43 42 41 41 42 46 44 39 33 26
54 54 50 45 42 37 34 31 25 20 16 13 11 13 14 15 13 9 4 7 10 14 17 19 21 18 16 18 22 32 35 34 36 45 48 48 47 43 41 43 45 43 49 43 40 37 37
54 51 47 44 39 34 33 28 21 16 13 11 11 13 13 15 13 9 3 6 8 12 14 16 21 21 15 16 16 22 32 33 36 41 46 46 47 44 41 42 44 45 44 46 48 41 38
51 47 46 44 36 34 33 27 19 15 9 9 10 11 15 9 10 5 7 5 9 10 10 16 13 17 23 25 21 17 23 31 31 39 43 46 47 45 42 41 42 44 45 49 47 45 39
49 46 44 42 34 35 32 24 18 15 9 9 8 13 10 7 5 4 10 4 2 5 11 14 15 18 21 23 27 24 21 24 32 35 42 44 47 46 44 42 43 44 46 47 52 45 42
46 43 44 41 35 35 31 22 17 14 9 7 9 11 9 8 7 2 3 4 2 2 9 11 10 15 21 23 24 28 27 27 30 36 35 38 43 44 41 43 45 44 48 48 51 49 44
42 41 42 40 36 31 25 19 15 9 4 4 9 9 9 12 14 7 3 5 6 5 3 4 3 10 12 22 23 27 27 29 29 36 33 31 38 40 37 46 49 47 48 47 50 52 51
40 40 42 39 34 28 21 16 14 5 3 3 7 8 10 16 15 9 3 5 8 5 4 2 4 4 1 6 11 18 20 25 27 37 32 31 30 33 39 41 46 49 47 47 49 51 53
39 41 41 38 32 25 18 15 12 6 5 3 4 5 8 11 14 11 6 3 3 3 5 4 0 2 7 6 5 12 5 11 18 32 32 30 28 28 39 41 46 43 43 46 48 49 52
37 39 39 34 28 21 16 13 10 7 8 6 1 5 8 10 12 12 11 9 7 5 7 8 7 6 5 15 12 9 9 9 7 11 18 23 22 32 38 40 46 47 43 45 46 49 51
35 38 36 29 23 19 18 16 11 11 10 10 4 2 5 6 8 10 12 14 11 7 7 6 6 5 2 15 14 10 11 12 13 15 8 17 24 33 39 45 39 50 48 47 50 47 46
35 37 33 26 21 19 15 16 12 13 11 13 9 4 4 7 6 8 10 11 12 11 8 7 7 4 3 5 16 15 13 14 13 9 16 16 17 24 40 46 43 44 51 47 49 48 49
34 34 29 24 21 21 17 14 7 12 11 11 11 8 6 7 6 7 6 8 9 9 8 10 6 4 5 2 3 7 12 20 20 17 16 17 16 26 23 39 48 35 54 47 39 50 55
34 31 27 23 23 21 19 15 3 10 9 8 8 7 6 6 5 4 5 8 7 7 6 4 6 6 2 0 1 3 6 11 20 16 12 13 13 17 34 33 42 42 47 46 47 42 39
33 28 24 20 21 19 17 10 6 9 9 6 5 6 3 3 5 6 6 10 7 6 6 5 5 5 5 3 2 3 4 7 12 11 7 8 9 14 19 25 33 23 35 49 49 43 41
30 26 21 18 19 17 14 8 11 10 8 6 5 4 3 4 8 7 5 8 12 8 6 6 6 7 6 6 6 5 4 5 9 10 12 8 7 9 14 16 19 23 25 30 28 37 43
Wind_Direction
21 17 10 6 3 3 2 4 359 342 335 330 323 315 298 282 275 269 258 249 243 241 238 230 228 230 228 221 221 214 207 202 209 210 210 207 209 195 203 203 199 203 169 161 150 152 129
8 4 360 358 356 356 357 356 355 350 337 329 322 316 306 291 279 272 263 252 243 241 239 236 227 224 227 224 219 215 212 206 210 210 206 213 211 203 202 207 199 223 193 175 161 149 112
356 351 347 344 347 348 349 349 349 347 337 324 316 306 300 292 280 274 265 257 248 239 238 236 232 224 222 223 220 217 212 211 213 211 207 209 215 207 201 203 200 210 176 172 166 137 143
345 342 338 339 343 343 342 342 342 342 336 321 310 299 292 286 278 268 265 258 253 249 241 235 232 227 223 219 218 217 215 210 213 216 215 213 216 212 207 203 206 212 188 188 165 183 170
342 336 334 335 338 340 338 337 338 338 331 318 309 301 289 279 272 264 263 258 254 249 244 240 232 227 227 217 213 216 215 213 210 213 217 218 219 216 213 208 215 215 232 197 196 201 195
338 333 333 335 337 337 336 336 336 333 324 314 305 298 287 278 271 264 258 256 254 247 244 239 235 228 224 219 215 215 213 213 212 212 217 219 218 217 218 211 217 220 223 201 194 211 206
339 338 336 336 336 335 334 333 332 328 321 313 307 297 284 277 271 266 260 256 254 250 244 241 235 230 224 221 220 216 215 212 215 215 216 220 220 219 223 213 219 225 225 224 209 209 208
334 335 336 334 334 334 331 330 330 324 316 310 306 292 284 275 269 265 263 260 262 260 252 240 234 228 222 218 215 218 217 214 214 216 218 216 218 217 216 214 209 221 226 225 219 207 218
332 336 333 334 335 332 333 332 327 322 321 314 300 285 277 272 263 258 261 263 265 264 252 239 231 226 220 218 215 209 217 217 214 213 216 217 210 214 212 213 209 213 229 233 234 226 221
333 333 333 334 333 333 333 332 327 324 321 306 290 282 280 274 263 258 265 266 264 259 251 244 234 223 217 217 216 212 211 214 217 213 214 212 208 211 210 206 208 207 223 236 231 233 231
334 334 334 335 334 333 333 332 327 326 316 302 294 294 287 274 266 261 266 274 269 262 253 235 230 220 212 209 212 213 211 215 214 215 215 210 209 210 211 208 207 199 209 221 227 240 239
334 336 336 335 335 336 336 334 329 324 318 311 304 296 285 275 276 278 281 278 268 257 241 235 237 225 213 211 206 212 212 212 214 216 214 207 210 210 207 203 207 199 214 216 228 227 231
341 343 338 338 339 337 337 335 330 327 322 310 306 294 296 301 297 291 279 265 250 239 238 236 224 218 217 215 205 205 212 211 213 213 216 209 212 211 209 205 204 200 211 215 224 229 220
346 342 340 340 340 340 340 336 334 330 324 316 311 308 313 306 296 300 293 273 237 230 236 241 240 221 214 223 213 203 206 213 214 211 216 210 209 213 208 210 208 205 216 212 212 219 206
344 342 341 341 342 343 338 338 336 330 325 316 307 320 325 316 311 306 312 286 230 225 237 241 252 249 232 220 217 214 207 205 213 213 213 211 209 212 210 208 209 208 216 218 228 229 222
345 342 342 341 341 340 338 340 332 325 320 312 315 329 329 322 321 342 298 235 225 216 224 227 244 241 234 237 226 222 217 206 212 214 214 210 207 211 210 210 211 211 211 213 221 225 220
344 343 344 344 344 341 339 339 338 339 314 308 330 323 334 322 286 325 205 212 206 222 218 206 228 228 235 237 247 238 229 214 209 215 213 211 207 208 209 210 210 211 213 212 218 227 228
343 343 343 345 342 338 338 338 339 336 310 315 327 335 352 343 306 98 199 162 202 221 225 240 237 231 235 237 231 239 247 230 205 220 219 212 209 201 206 210 210 212 215 217 218 222 227
342 341 343 341 338 336 336 330 330 337 315 323 334 347 350 2 352 349 150 226 285 304 276 255 246 248 238 229 224 232 237 239 223 214 218 223 215 199 201 207 208 209 214 215 218 222 225
339 342 341 339 335 333 334 327 327 328 273 314 339 346 8 14 16 22 311 296 295 292 299 256 319 333 230 214 226 230 234 232 228 223 218 228 226 208 200 203 210 211 215 218 217 220 225
340 340 340 340 336 334 330 326 323 284 224 286 339 355 16 27 13 4 320 265 263 295 291 296 335 348 271 198 236 221 233 232 230 220 221 225 228 216 201 203 209 214 216 217 221 222 224
340 339 342 338 336 333 330 329 321 232 199 243 341 8 49 36 22 9 3 270 234 301 325 331 218 143 239 266 198 211 197 203 223 228 222 231 221 223 209 205 209 213 217 220 223 222 224
339 339 342 339 338 339 339 340 336 234 212 215 319 15 41 44 36 27 17 355 346 318 327 346 315 268 224 209 196 194 217 208 214 237 221 231 250 225 212 205 216 211 214 213 223 224 227
337 338 340 340 339 338 335 331 320 228 218 210 230 318 10 29 33 20 25 27 9 342 316 320 328 298 293 193 216 215 210 227 196 185 205 219 231 232 217 208 219 217 214 216 219 227 231
336 338 339 339 337 333 329 324 306 220 224 214 227 250 309 327 359 352 4 15 19 29 16 344 330 337 257 227 215 215 228 215 229 228 233 229 230 206 216 215 216 223 221 221 223 226 232
335 338 336 334 335 343 331 330 305 215 232 228 230 253 276 299 313 314 346 355 346 1 7 26 21 4 22 10 231 241 243 239 241 257 268 248 221 208 211 215 222 211 218 218 220 219 230
333 335 335 333 334 341 339 335 277 211 247 244 235 248 254 274 280 300 350 2 326 321 327 353 32 47 36 14 294 282 261 237 238 245 246 247 255 226 221 207 214 213 232 233 227 227 236
330 331 332 328 330 330 337 329 222 233 250 246 226 227 246 294 288 297 335 8 351 317 337 333 331 319 326 347 9 261 249 245 233 235 245 229 232 250 248 239 229 195 205 213 216 219 226
327 327 326 323 324 324 329 321 230 231 242 226 197 209 259 294 285 286 295 331 348 333 295 306 327 325 310 295 289 288 276 258 239 241 227 231 248 239 244 247 243 243 241 226 205 213 218